Theta_e
348 348 346 350 352 348 346 350 349 351 352 350 348 349 350 352 353 354 353 354 354 354 353 352 353 353 353 351 351 349 352 350 352 351 350 351 348 350 345 346 346 346 350
347 350 347 351 349 347 350 351 351 347 348 348 351 351 353 353 349 349 352 354 354 354 354 354 353 352 352 353 353 350 351 351 351 352 347 345 349 347 347 349 347 346 348
349 350 351 349 349 349 350 350 347 349 349 349 350 348 348 352 353 354 352 353 353 354 353 352 353 353 353 352 351 351 351 351 348 344 345 344 346 349 348 348 347 346 348
350 350 352 348 349 349 349 347 349 350 349 349 352 348 351 350 352 353 353 353 352 353 353 353 352 352 352 350 351 352 348 343 341 346 345 343 345 350 349 348 344 343 344
350 351 351 350 350 346 348 348 349 349 349 351 353 351 350 348 347 348 349 350 352 353 353 353 352 347 344 345 346 348 350 342 345 345 346 346 343 343 345 345 344 346 348
350 351 350 350 348 350 347 349 349 348 350 351 353 352 353 351 350 348 347 347 348 350 351 349 344 342 341 344 344 349 348 344 346 345 346 344 345 345 348 343 344 342 341
351 351 350 351 350 350 348 350 348 350 349 352 353 352 352 354 352 349 348 346 343 342 342 342 340 338 342 344 342 341 342 340 342 343 346 346 346 343 350 347 345 347 346
350 351 349 347 350 348 350 349 351 352 352 352 352 349 352 351 351 351 349 344 340 340 340 339 336 335 336 340 338 336 330 340 338 339 341 341 337 341 347 345 344 341 345
349 351 350 349 351 351 347 348 350 352 349 347 348 353 353 353 344 340 337 336 338 339 339 337 334 334 334 332 336 332 324 339 340 340 339 341 333 339 340 341 338 338 339
348 350 351 350 351 343 352 350 351 346 345 345 347 345 348 346 349 349 347 338 337 336 335 335 336 336 336 336 333 330 334 336 338 340 339 338 329 335 338 340 340 338 339
347 349 350 350 350 351 351 352 345 339 339 344 346 346 349 351 351 351 345 345 346 345 342 341 340 339 347 348 339 339 339 335 334 335 334 324 324 325 330 330 330 333 334
347 348 350 348 346 350 350 351 349 349 350 351 352 353 350 352 349 350 349 350 349 350 350 349 348 351 351 348 350 349 346 343 337 335 335 329 327 327 328 327 326 326 327
347 346 349 349 351 349 350 347 345 346 347 349 353 354 352 350 353 352 352 352 352 352 352 353 354 353 354 352 350 350 350 348 344 341 338 334 333 332 331 331 330 330 329
348 346 348 350 349 350 348 346 345 346 348 349 351 353 352 350 354 353 352 352 351 352 353 353 352 355 354 355 355 353 351 350 346 344 343 341 340 338 338 336 336 336 335
348 347 348 348 349 350 349 349 349 347 349 350 351 352 351 352 354 352 353 352 352 352 351 352 354 355 355 353 353 353 351 351 351 348 346 345 343 342 342 342 341 341 341
350 349 349 347 349 349 348 351 352 350 349 349 351 352 352 352 355 353 352 351 352 352 352 354 356 354 354 352 352 353 352 352 353 353 350 348 346 345 344 344 344 343 343
350 350 347 348 347 348 349 350 352 351 346 348 350 352 353 353 354 355 351 351 351 352 352 353 353 353 352 352 353 353 353 352 351 352 354 351 349 348 347 346 345 345 345
347 349 347 345 345 346 348 351 350 350 351 346 347 349 351 352 353 351 350 349 351 350 350 351 352 352 353 352 351 351 352 351 352 354 353 352 350 350 350 350 348 347 347
346 348 348 347 344 345 349 349 350 351 351 350 344 344 349 352 352 353 349 350 351 348 350 351 351 353 352 353 349 349 350 349 349 350 354 355 354 353 352 352 350 349 347
345 347 348 347 346 347 348 349 350 351 352 352 351 347 349 350 353 352 348 350 351 347 348 353 353 352 351 352 350 348 348 348 349 350 352 352 352 354 354 355 355 353 346
346 346 346 347 347 348 349 349 348 349 350 351 352 353 355 353 354 354 349 348 348 348 351 353 352 350 351 350 351 347 346 346 347 348 350 350 351 351 353 353 354 352 351
349 348 347 347 348 349 347 347 348 352 351 351 352 354 355 354 354 354 354 351 350 349 348 351 354 352 349 350 352 349 347 345 346 348 349 349 352 351 351 352 353 353 349
350 350 350 350 349 350 348 348 352 353 354 352 350 350 350 353 354 355 355 355 354 354 348 348 350 354 351 349 353 352 352 348 346 343 348 350 354 352 351 351 351 352 352
349 350 352 353 353 353 351 349 352 351 350 351 351 350 351 351 351 352 353 355 355 352 351 352 350 351 352 347 344 346 351 351 352 351 345 345 349 351 350 350 349 349 347
348 349 351 353 355 354 354 355 353 353 351 352 352 352 352 353 352 351 350 352 354 354 351 353 354 354 351 351 349 346 346 347 346 349 351 347 346 346 348 347 349 348 346
347 348 350 353 356 356 355 353 351 349 351 349 351 351 349 351 350 350 352 353 353 353 352 353 353 356 356 353 350 351 349 347 346 345 345 344 343 343 344 345 345 346 348
Wind_Speed
10 10 13 12 12 13 14 16 16 16 16 17 16 16 15 16 16 16 17 17 17 17 17 17 16 16 16 15 15 15 16 16 16 15 15 15 14 13 14 13 12 12 14
14 11 14 12 12 14 15 15 16 15 16 17 17 16 15 15 16 16 16 16 16 16 17 17 16 16 16 15 14 15 14 15 15 14 14 15 12 12 12 11 13 12 13
14 13 12 13 14 15 13 13 15 15 16 15 15 16 15 14 15 15 14 14 15 16 16 16 15 15 15 14 14 14 13 13 13 14 7 11 10 11 11 11 12 12 12
15 14 12 14 15 14 14 14 13 14 14 14 15 15 15 14 14 14 14 15 15 15 15 15 14 13 11 11 11 11 12 11 13 10 9 11 10 10 10 10 9 10 10
15 14 13 14 14 14 12 12 13 13 14 15 15 14 14 14 14 13 13 13 14 14 13 13 12 12 11 9 9 8 7 11 12 10 10 9 10 8 8 9 8 8 7
15 14 13 14 13 12 14 12 13 14 15 15 14 13 12 13 14 13 12 12 14 13 12 12 12 11 11 9 8 10 9 11 9 9 9 9 9 6 7 6 6 6 7
15 14 13 13 12 11 12 12 13 14 15 14 14 13 15 17 14 13 13 13 13 13 12 11 11 11 11 11 11 9 9 11 9 9 9 8 6 5 6 6 5 6 5
15 13 12 12 12 11 11 11 13 14 13 13 14 14 15 16 15 14 14 14 13 12 11 11 11 11 13 11 11 11 11 10 9 9 8 7 4 6 5 4 3 3 4
13 13 12 11 9 10 11 10 10 12 12 12 13 12 14 15 18 18 17 15 13 11 9 9 10 11 13 13 10 12 12 13 9 8 8 7 5 6 3 2 3 3 3
13 12 12 11 9 11 10 8 9 10 10 11 10 12 16 18 18 17 14 12 10 8 7 7 7 8 10 11 11 12 13 12 8 7 7 5 5 5 4 4 3 3 2
12 12 12 11 9 8 9 7 7 8 9 11 11 12 13 12 12 11 10 8 5 4 5 5 6 7 7 10 11 12 11 7 7 6 6 4 4 3 2 2 2 2 1
15 13 12 12 12 9 8 7 7 8 8 7 6 8 10 10 10 9 10 11 10 7 8 8 7 7 7 5 4 8 7 7 6 6 4 5 5 4 3 3 2 1 0
16 14 13 13 9 9 8 7 7 7 7 5 6 7 8 8 8 9 10 10 9 11 10 9 9 7 7 5 5 5 5 5 6 5 3 5 4 3 2 2 2 2 2
17 16 14 11 10 7 6 6 8 8 7 6 5 5 6 6 8 9 9 9 10 9 9 9 9 8 7 6 6 5 3 3 4 3 2 6 4 3 3 2 2 2 2
16 17 15 12 9 7 5 6 6 7 6 5 4 3 4 5 6 6 8 9 9 9 9 10 10 10 8 5 6 6 5 4 3 3 2 7 6 5 5 5 4 4 5
16 18 15 15 11 7 5 5 5 5 4 4 3 2 3 4 5 5 5 6 7 9 9 9 10 10 8 6 7 7 6 4 4 5 4 5 9 8 7 8 9 9 9
16 16 14 16 12 9 7 6 5 4 5 4 4 2 1 3 5 4 4 5 7 7 8 8 9 8 8 7 7 7 5 6 6 7 6 6 6 10 8 9 10 11 12
14 16 17 15 13 11 7 5 4 4 3 5 6 5 3 3 4 5 5 5 8 7 7 7 8 9 8 8 8 8 8 8 8 8 7 7 7 8 10 11 11 11 13
13 15 16 15 14 12 10 8 6 5 4 4 6 7 5 4 4 5 7 7 9 8 7 7 7 7 8 9 11 8 11 11 10 10 8 8 8 9 9 10 14 12 9
13 14 16 15 12 11 9 9 8 7 6 6 6 7 7 5 4 5 7 8 9 9 8 7 9 9 9 9 13 12 12 11 9 8 9 8 6 8 8 7 7 7 8
13 15 16 17 16 13 12 10 10 9 8 8 8 8 7 7 7 7 7 7 8 7 7 9 10 11 11 10 14 13 13 8 7 7 9 8 8 6 5 4 3 5 8
14 15 17 18 18 17 13 11 9 6 6 8 6 6 8 9 10 10 9 8 7 8 8 8 8 11 13 8 12 15 7 11 4 12 8 11 7 8 8 6 7 6 8
17 18 18 18 18 18 16 12 11 9 9 9 8 8 8 9 10 11 11 11 10 9 10 8 9 9 12 12 6 8 9 8 15 16 12 7 9 13 12 11 9 9 11
18 18 19 19 18 15 15 16 12 11 11 9 6 8 9 11 13 14 13 12 12 12 12 11 11 10 10 13 13 12 7 12 9 10 14 16 14 9 13 15 16 14 14
13 15 15 16 16 16 16 18 15 16 13 10 9 9 11 12 12 12 14 14 14 15 15 14 13 12 12 12 13 13 13 15 16 13 10 15 16 17 15 18 17 18 15
10 12 11 12 11 11 12 15 16 18 14 14 14 14 16 14 12 11 13 14 16 18 19 18 18 17 16 16 16 14 15 15 16 17 12 16 18 20 18 17 17 17 13
Wind_Direction
120 108 102 103 104 103 99 98 98 99 102 101 99 98 98 97 96 92 91 93 93 93 94 96 97 96 91 94 97 96 94 97 94 94 94 92 94 95 98 95 100 98 103
127 117 105 108 111 103 99 101 99 99 98 95 90 89 91 91 94 95 93 91 93 91 91 92 90 91 89 84 88 86 89 93 96 95 100 94 93 96 100 87 94 107 105
124 118 107 109 107 105 104 96 106 98 96 93 94 86 87 90 90 90 89 90 90 88 90 90 90 87 89 86 84 82 81 85 92 90 90 89 87 94 94 94 96 101 102
126 123 114 108 105 102 98 98 100 94 89 88 82 84 93 86 85 85 85 90 92 93 91 89 88 87 80 75 78 80 78 85 89 72 86 90 90 93 96 93 97 103 110
129 124 121 108 103 110 101 102 96 94 90 86 84 81 84 85 85 84 86 88 93 92 91 88 83 74 67 67 68 71 88 75 80 85 88 82 87 85 89 85 85 100 111
129 124 118 108 111 106 109 99 98 95 91 87 85 84 78 90 88 85 87 91 96 95 91 86 75 62 53 54 74 71 91 78 69 87 89 81 81 96 93 88 103 104 113
132 127 120 112 105 104 104 98 96 90 87 87 83 81 77 82 85 86 89 94 99 97 91 82 67 56 56 66 81 75 81 75 82 87 86 74 87 96 102 92 94 99 103
130 128 123 113 107 111 104 96 92 91 90 87 85 80 78 80 83 85 90 95 98 94 86 73 60 56 57 69 73 71 76 94 77 84 85 84 90 98 96 100 75 95 96
135 133 130 119 106 105 114 98 93 92 93 90 87 83 83 82 82 81 86 88 88 85 77 65 54 57 55 58 69 66 66 94 79 83 81 84 89 94 112 89 87 93 107
144 138 135 128 123 113 111 105 100 95 94 93 90 88 79 73 69 70 66 74 74 70 60 52 49 48 44 47 57 57 68 63 77 80 78 86 88 99 89 80 78 75 82
154 148 145 139 140 132 123 103 84 92 92 83 75 79 76 80 74 72 58 58 57 48 42 37 33 31 34 34 43 55 64 69 69 71 74 52 72 75 97 78 68 67 58
166 161 155 150 153 145 131 127 120 117 119 108 87 73 80 70 64 64 50 55 51 55 48 35 24 35 41 66 60 39 62 66 66 65 69 47 55 58 49 58 39 35 352
173 169 166 157 156 150 137 135 133 134 128 113 84 70 63 63 50 61 63 62 60 56 63 57 44 50 54 39 46 42 37 52 60 58 46 28 37 28 18 32 26 10 338
176 175 172 164 160 150 142 138 139 144 140 134 109 69 58 67 54 58 59 55 53 55 45 38 32 21 25 34 28 16 8 24 39 40 347 354 0 353 341 332 333 325 284
174 171 171 173 163 158 142 131 130 148 149 141 121 84 67 58 50 54 52 51 45 42 35 26 20 16 19 40 32 23 17 19 13 7 346 316 319 312 308 303 296 287 281
174 172 178 175 175 166 152 149 143 148 167 162 156 117 56 50 34 35 39 37 35 28 22 21 17 18 26 35 38 22 6 0 353 334 319 292 307 301 293 295 295 293 286
173 173 176 178 179 177 172 167 163 165 169 200 196 191 5 9 8 5 4 6 9 7 8 9 8 13 15 11 17 15 3 2 345 330 306 291 282 295 302 293 290 290 291
170 176 178 182 181 182 183 187 192 198 201 207 215 224 246 310 338 330 323 335 345 339 342 348 355 354 3 0 352 351 347 339 339 320 307 291 283 287 290 296 300 300 294
171 175 183 188 187 187 190 195 208 227 231 225 225 228 233 270 296 322 307 317 330 317 318 328 336 342 343 343 324 342 334 333 328 330 320 301 286 285 292 290 303 312 322
174 180 185 191 194 196 201 212 212 218 230 246 242 241 241 250 281 300 296 315 317 299 299 322 328 325 317 325 323 320 322 330 333 337 331 317 319 302 301 296 291 299 330
179 186 194 197 200 200 207 214 225 237 241 246 258 251 255 264 271 278 286 300 315 290 300 307 311 305 311 321 313 316 311 302 319 347 346 349 358 7 21 7 359 326 329
189 195 201 206 207 208 213 220 232 247 260 267 268 263 258 267 271 270 275 290 301 303 286 293 304 308 300 316 322 315 306 308 242 328 324 322 358 340 342 344 337 328 328
202 203 206 210 214 217 222 225 232 244 268 254 248 253 256 269 271 269 268 270 281 284 286 282 283 288 297 305 297 311 313 314 326 308 308 299 320 318 319 318 304 318 315
212 209 212 212 213 215 217 229 235 244 252 291 276 272 283 280 273 266 263 263 266 272 277 274 271 267 280 290 291 289 298 298 301 305 301 299 288 273 308 301 309 305 310
215 215 214 217 218 216 220 225 233 241 256 257 267 280 279 281 278 270 265 266 266 268 269 264 265 255 259 272 286 293 287 286 275 276 294 292 296 292 294 299 306 304 306
216 218 209 210 222 223 233 242 253 253 261 274 279 293 293 286 280 272 268 265 266 267 266 267 267 260 256 260 261 269 275 275 282 287 291 294 296 294 292 300 301 303 299